{"data":{"norad_id":68230,"intl_designator":"2026-053Z","name":"STARLINK-37100","alt_names":[],"object_type":"PAYLOAD","status":"ACTIVE","operator":null,"country":"US","launch_date":"2026-03-17","launch_site_code":"AFWTR","launch_vehicle":null,"mission":null,"orbit_class":"UNKNOWN","rcs_meters":null,"size_class":null,"mass_kg":null,"dimensions":null,"purposes":["comms"],"wikipedia_slug":null,"has_3d_model":false,"image_url":null,"decayed_at":null,"tle_current":{"epoch":"2026-05-25T04:01:52.042080Z","epoch_age_seconds":67482,"freshness":"FRESH","line1":"1 68230U 26053Z   26145.16796345  .00005652  00000+0  17734-3 0  9996","line2":"2 68230  97.2866  20.6954 0001654  92.3581 267.7851 15.33434012 11946","mean_motion":15.33434012,"eccentricity":0.0001654,"inclination_deg":97.2866,"raan_deg":20.6954,"arg_perigee_deg":92.3581,"mean_anomaly_deg":267.7851,"bstar":0.00017734,"rev_number":1194,"period_min":93.906877552681,"perigee_km":464.44391712239,"apogee_km":466.70781733887,"semimajor_km":6843.7128672306,"source":"CELESTRAK","updated_at":"2026-05-25T13:38:21.882333Z"}}}